Florence, SC

12:34 AM EDT on August 22, 2017 (GMT -0400)
Florence Regional

Weather History for KFLO - November, 2011

Change the Weather History Date:

Wednesday, November 30, 2011

  Actual Average Record
Temperature  
Mean Temperature 46 °F 51 °F  
Max Temperature 58 °F 62 °F 81 °F (1991)
Min Temperature 34 °F 40 °F 21 °F (1955)
Degree Days  
Heating Degree Days 19 14  
Month to date heating degree days 275 305  
Since 1 July heating degree days 429 422  
Cooling Degree Days 0 0  
Month to date cooling degree days 22 17  
Year to date cooling degree days 2452 2059  
Moisture  
Dew Point 35 °F    
Average Humidity 66    
Maximum Humidity 92    
Minimum Humidity 40    
Precipitation  
Precipitation 0.00 in 0.09 in 2.14 in (1985)
Month to date precipitation 1.18 2.67  
Year to date precipitation 27.21 39.90  
Sea Level Pressure  
Sea Level Pressure 30.00 in    
Wind  
Wind Speed 6 mph (West)    
Max Wind Speed 12 mph    
Max Gust Speed 16 mph    
Visibility 9 miles    
Events      
T = Trace of Precipitation, MM = Missing Value Source: NWS Daily Summary

Daily Weather History Graph

Daily Weather History Graph

Search for Another Location

Airport or City:

Trip Planner

Search our weather history database for the weather conditions in past years. The results will help you decide how hot, cold, wet, or windy it might be!

Date:

Astronomy

Nov. 30, 2011 Rise Set
Actual Time 7:05 AM EST 5:09 PM EST
Civil Twilight 6:38 AM EST 5:36 PM EST
Nautical Twilight 6:07 AM EST 6:07 PM EST
Astronomical Twilight 5:36 AM EST 6:37 PM EST
Moon 11:30 AM EST (11/30) 10:55 PM EST (11/30)
Length of Visible Light 10h 58m
Length of Day
10h 03m
Waxing Crescent, 33% of the Moon is Illuminated
Nov 30
Waxing Crescent
Dec 2
First Quarter
Dec 10
Full
Dec 17
Last Quarter
Dec 24
New

Hourly Weather History & Observations

Time (EST) Temp. Windchill Dew Point Humidity Pressure Visibility Wind Dir Wind Speed Gust Speed Precip Events Conditions
12:53 AM 39.0 °F 33.4 °F 35.1 °F 86% 29.93 in 10.0 mi SW 8.1 mph - N/A   Clear
1:53 AM 37.9 °F 31.5 °F 34.0 °F 86% 29.93 in 10.0 mi SW 9.2 mph - N/A   Clear
2:53 AM 37.9 °F 31.5 °F 34.0 °F 86% 29.93 in 10.0 mi WSW 9.2 mph - N/A   Clear
3:53 AM 37.0 °F 33.3 °F 34.0 °F 89% 29.93 in 10.0 mi WSW 4.6 mph - N/A   Clear
4:53 AM 36.0 °F 31.1 °F 34.0 °F 93% 29.94 in 10.0 mi SW 5.8 mph - N/A   Clear
5:53 AM 35.1 °F 31.0 °F 33.1 °F 92% 29.96 in 8.0 mi WSW 4.6 mph - N/A   Clear
6:53 AM 35.1 °F 31.0 °F 33.1 °F 92% 29.97 in 8.0 mi WSW 4.6 mph - N/A   Clear
7:53 AM 36.0 °F 31.1 °F 34.0 °F 93% 29.99 in 6.0 mi WSW 5.8 mph - N/A   Clear
8:53 AM 41.0 °F 35.2 °F 36.0 °F 82% 29.99 in 10.0 mi West 9.2 mph - N/A   Clear
9:53 AM 45.0 °F 40.6 °F 35.1 °F 68% 30.01 in 10.0 mi West 8.1 mph - N/A   Clear
10:53 AM 48.2 °F - 35.6 °F 62% 30.01 in 10.0 mi West 9.2 mph - N/A   Clear
11:53 AM 51.1 °F - 35.1 °F 54% 29.99 in 10.0 mi West 6.9 mph - N/A   Clear
12:53 PM 54.0 °F - 34.0 °F 47% 29.97 in 10.0 mi Variable 3.5 mph - N/A   Clear
1:53 PM 57.0 °F - 35.1 °F 44% 29.96 in 10.0 mi NNW 10.4 mph - N/A   Clear
2:53 PM 57.0 °F - 34.0 °F 42% 29.96 in 10.0 mi Variable 6.9 mph - N/A   Clear
3:53 PM 57.0 °F - 34.0 °F 42% 29.98 in 10.0 mi NW 9.2 mph - N/A   Clear
4:53 PM 55.0 °F - 36.0 °F 49% 30.00 in 10.0 mi NW 3.5 mph - N/A   Clear
5:53 PM 50.0 °F - 36.0 °F 59% 30.02 in 10.0 mi NW 3.5 mph - N/A   Clear
6:53 PM 44.1 °F 42.5 °F 37.0 °F 76% 30.05 in 10.0 mi WNW 3.5 mph - N/A   Clear
7:53 PM 42.1 °F 40.2 °F 37.0 °F 82% 30.06 in 6.0 mi WNW 3.5 mph - N/A   Haze
8:53 PM 39.9 °F 37.8 °F 36.0 °F 86% 30.08 in 9.0 mi West 3.5 mph - N/A   Clear
9:53 PM 37.9 °F 34.4 °F 35.1 °F 89% 30.09 in 5.0 mi NW 4.6 mph - N/A   Clear
10:53 PM 39.9 °F 35.8 °F 36.0 °F 86% 30.10 in 10.0 mi NW 5.8 mph - N/A   Clear
11:53 PM 42.8 °F 39.3 °F 37.4 °F 81% 30.12 in 10.0 mi NNW 5.8 mph - N/A   Clear